Regional Weather Roundup
Issued by NWS Little Rock, AR

Current Version | Previous Version | Text Only | Print | Product List | Glossary On
Versions: 1 2 3 4 5 6 7 8 9 10 11 12 13 14 15 16 17 18 19 20 21 22 23 24 25 26 27 28 29 30 31 32 33 34 35 36 37 38 39 40 41 42 43 44 45 46 47 48 49 50
000
ASUS44 KLZK 202005
RWRLZK

WEATHER ROUNDUP FOR ARKANSAS
NATIONAL WEATHER SERVICE LITTLE ROCK AR
200 PM CST FRI JAN 20 2017

NOTE: "FAIR" INDICATES FEW OR NO CLOUDS BELOW 12,000 FEET WITH NO
SIGNIFICANT WEATHER AND/OR OBSTRUCTIONS TO VISIBILITY.

ARZ001-003-010-029-202100-
NORTHWEST ARKANSAS

CITY           SKY/WX    TMP DP  RH WIND       PRES   REMARKS
FAYETTEVILLE   SUNNY     64  44  48 S24G32    29.51F
FORT SMITH     SUNNY     69  39  33 S20       29.54S
HARRISON       SUNNY     66  45  46 S13G23    29.52F
BENTONVILLE    SUNNY    N/A N/A N/A SW18G25   29.51S
ROGERS         SUNNY     64  44  48 S21G26    29.51S
SILOAM SPGS    SUNNY     64  43  45 SW20G32   29.50S
HIGHFILL       SUNNY     64  44  48 SW17      29.49F
SPRINGDALE     SUNNY     64  43  45 SW22G30   29.52F
$$

ARZ004-005-016-202100-
NORTH CENTRAL ARKANSAS

CITY           SKY/WX    TMP DP  RH WIND       PRES   REMARKS
BATESVILLE     MOSUNNY   64  54  68 S14G20    29.60S
FLIPPIN        MOSUNNY   66  46  48 S7        29.51F
MTN HOME       SUNNY     64  49  57 SW10G20   29.53F
$$

ARZ040-041-202100-
WEST CENTRAL ARKANSAS

CITY           SKY/WX    TMP DP  RH WIND       PRES   REMARKS
MENA           SUNNY     68  45  42 SW9G22    29.60S
MOUNT IDA      MOSUNNY   67  45  45 SW10G21   29.57F
$$

ARZ009-017-025-026-028-202100-
NORTHEAST ARKANSAS

CITY           SKY/WX    TMP DP  RH WIND       PRES   REMARKS
CORNING        CLOUDY    63  57  82 S16       29.61F
JONESBORO      PTSUNNY   64  54  69 SW15      29.62S
NEWPORT        MOSUNNY   64  54  69 S23       29.60S
WALNUT RIDGE   PTSUNNY   63  52  67 S22       29.60S
BLYTHEVILLE    PTSUNNY   63  54  72 S14       29.65F
NW BLYTHEVILLE PTSUNNY   64  55  72 S16G26    29.64F
$$

ARZ022-023-033-042-044-202100-
CENTRAL ARKANSAS

CITY           SKY/WX    TMP DP  RH WIND       PRES   REMARKS
LITTLE ROCK    PTSUNNY   68  53  58 S13G22    29.62S
N LITTLE ROCK    N/A     66  53  61 SW10G21   29.62F
JACKSONVILLE   SUNNY     68  55  64 S14G21    29.61R
SEARCY         MOSUNNY   66  55  67 S13       29.62F
HOT SPRINGS    SUNNY     68  50  52 SW12G21   29.62F
RUSSELLVILLE   SUNNY     68  47  46 S10       29.56F
CLINTON        FAIR      66  52  59 S12G18    29.58S
$$

ARZ036-202100-
EAST ARKANSAS

CITY           SKY/WX    TMP DP  RH WIND       PRES   REMARKS
WEST MEMPHIS   PTSUNNY   64  57  78 S13G23    29.64F
$$

ARZ050-053-066-070-073-202100-
SOUTHWEST ARKANSAS

CITY           SKY/WX    TMP DP  RH WIND       PRES   REMARKS
ARKADELPHIA    FAIR      68  53  58 SW15G22   29.64F
CAMDEN         SUNNY     73  46  38 SW14      29.66S
TEXARKANA      SUNNY     69  44  40 SW16G28   29.65F
EL DORADO      SUNNY     71  50  47 SW10      29.68F
DE QUEEN       SUNNY     70  44  39 SW15      29.61F
$$

ARZ056-057-069-202100-
SOUTHEAST ARKANSAS

CITY           SKY/WX    TMP DP  RH WIND       PRES   REMARKS
PINE BLUFF     SUNNY     70  52  52 S20G25    29.64F
STUTTGART      SUNNY     70  52  52 S22       29.65R
MONTICELLO     SUNNY     72  50  45 SW17G25   29.66F

$$





USA.gov is the U.S. government's official web portal to all federal, state and local government web resources and services.